Weather History for KIJD - March, 2012

Change the Weather History Date:

Friday, March 16, 2012

  Actual Average Record
Temperature  
Mean Temperature 42 °F -  
Max Temperature 48 °F 46 °F 81 °F (1990)
Min Temperature 37 °F 23 °F 6 °F (1993)
Degree Days  
Heating Degree Days 22    
Moisture  
Dew Point 38 °F    
Average Humidity 80    
Maximum Humidity 86    
Minimum Humidity 76    
Precipitation  
Precipitation 0.03 in - - ()
Sea Level Pressure  
Sea Level Pressure 30.22 in    
Wind  
Wind Speed 4 mph (SSE)    
Max Wind Speed 8 mph    
Max Gust Speed -    
Visibility 9 miles    
Events Rain    
Averages and records for this station are not official NWS values.
T = Trace of Precipitation, MM = Missing Value Source: NWS Daily Summary

Daily Weather History Graph

Daily Weather History Graph

Search for Another Location

Airport or City:

Trip Planner

Search our weather history database for the weather conditions in past years. The results will help you decide how hot, cold, wet, or windy it might be!

Date:

Astronomy

Mar. 16, 2012 Rise Set
Actual Time 6:58 AM EDT 6:56 PM EDT
Civil Twilight 6:30 AM EDT 7:24 PM EDT
Nautical Twilight 5:58 AM EDT 7:57 PM EDT
Astronomical Twilight 5:25 AM EDT 8:30 PM EDT
Moon 3:18 AM EDT (3/16) 1:09 PM EDT (3/16)
Length of Visible Light 12h 54m
Length of Day
11h 58m
Waning Crescent, 33% of the Moon is Illuminated
Mar 16
Waning Crescent
Mar 22
New
Mar 30
First Quarter
Apr 6
Full
Apr 13
Last Quarter

Hourly Weather History & Observations

Time (EDT) Temp. Windchill Dew Point Humidity Pressure Visibility Wind Dir Wind Speed Gust Speed Precip Events Conditions
12:24 AM 42.8 °F 39.3 °F 35.6 °F 76% 30.34 in 10.0 mi South 5.8 mph - N/A   Overcast
12:52 AM 41.0 °F 36.4 °F 35.1 °F 79% 30.34 in 10.0 mi South 6.9 mph - N/A   Overcast
1:52 AM 41.0 °F 38.0 °F 35.1 °F 79% 30.32 in 10.0 mi South 4.6 mph - N/A   Overcast
2:52 AM 39.9 °F 37.8 °F 35.1 °F 83% 30.30 in 10.0 mi East 3.5 mph - N/A   Overcast
3:52 AM 39.9 °F 37.8 °F 34.0 °F 79% 30.27 in 10.0 mi SE 3.5 mph - N/A   Overcast
4:52 AM 39.0 °F 35.7 °F 33.1 °F 79% 30.28 in 10.0 mi Variable 4.6 mph - N/A   Overcast
5:52 AM 39.0 °F 36.8 °F 33.1 °F 79% 30.27 in 10.0 mi SE 3.5 mph - N/A   Overcast
6:52 AM 37.9 °F 35.5 °F 32.0 °F 79% 30.27 in 10.0 mi Variable 3.5 mph - N/A   Overcast
7:52 AM 39.0 °F 35.7 °F 33.1 °F 79% 30.28 in 10.0 mi South 4.6 mph - N/A   Overcast
8:52 AM 39.9 °F - 33.1 °F 77% 30.28 in 10.0 mi Calm Calm - N/A   Overcast
9:52 AM 39.9 °F 36.7 °F 35.1 °F 83% 30.26 in 7.0 mi Variable 4.6 mph - 0.00 in Rain Light Rain
10:52 AM 41.0 °F 38.0 °F 36.0 °F 82% 30.25 in 10.0 mi SSE 4.6 mph - 0.01 in   Overcast
11:25 AM 42.8 °F 39.3 °F 35.6 °F 76% 30.23 in 10.0 mi South 5.8 mph - N/A   Overcast
11:52 AM 43.0 °F 38.2 °F 36.0 °F 76% 30.23 in 10.0 mi South 8.1 mph - N/A   Overcast
12:52 PM 44.1 °F 42.5 °F 37.0 °F 76% 30.21 in 10.0 mi South 3.5 mph - N/A   Overcast
1:41 PM 44.6 °F 43.1 °F 37.4 °F 76% 30.17 in 5.0 mi South 3.5 mph - 0.01 in Rain Light Rain
1:52 PM 44.1 °F 42.5 °F 39.0 °F 82% 30.17 in 7.0 mi South 3.5 mph - 0.02 in Rain Light Rain
2:52 PM 45.0 °F 42.6 °F 39.9 °F 82% 30.14 in 10.0 mi South 4.6 mph - 0.00 in Rain Light Rain
3:52 PM 46.0 °F 44.8 °F 41.0 °F 83% 30.13 in 10.0 mi Variable 3.5 mph - 0.00 in   Overcast
5:52 PM 46.9 °F - 42.1 °F 83% 30.12 in 10.0 mi Calm Calm - N/A   Overcast
6:52 PM 48.0 °F - 42.1 °F 80% 30.13 in 10.0 mi Calm Calm - N/A   Overcast
7:52 PM 48.0 °F - 43.0 °F 83% 30.15 in 10.0 mi Calm Calm - N/A   Overcast
8:52 PM 48.0 °F - 43.0 °F 83% 30.15 in 10.0 mi Calm Calm - N/A   Overcast
9:35 PM 48.2 °F - 42.8 °F 82% 30.14 in 10.0 mi Calm Calm - N/A   Overcast
9:52 PM 48.0 °F - 43.0 °F 83% 30.15 in 9.0 mi Calm Calm - N/A   Overcast
10:52 PM 48.0 °F - 44.1 °F 86% 30.16 in 9.0 mi Calm Calm - N/A   Overcast
11:52 PM 48.0 °F - 44.1 °F 86% 30.17 in 8.0 mi Calm Calm - N/A   Overcast